Regional Weather Roundup
Issued by NWS

Home | Current Version | Previous Version | Text Only | Print | Product List | Glossary On
Versions: 1 2 3 4 5 6 7 8 9 10 11 12 13 14 15 16 17 18 19 20 21 22 23 24 25 26 27 28
000
ASUS45 KBOU 191410
RWRCO

WEATHER ROUNDUP FOR COLORADO
NATIONAL WEATHER SERVICE DENVER/BOULDER CO
800 AM MDT TUE JUN 19 2018

NOTE: "FAIR" INDICATES FEW OR NO CLOUDS BELOW 12000 FEET WITH NO
SIGNIFICANT WEATHER AND/OR OBSTRUCTIONS TO VISIBILITY.

COZ001>005-013-030-031-191500-
...NORTHWEST COLORADO...

CITY           SKY/WX    TMP DP  RH WIND       PRES   REMARKS
CRAIG          FAIR      48  40  73 CALM      30.14S
HAYDEN         FAIR      52  37  56 E7        30.16R
MEEKER         FAIR      50  32  50 CALM      30.14S
RANGELY        FAIR      63  39  42 E12       30.07S
RABBIT EARS PA FAIR      50  28  43 S6        30.35S
STEAMBOAT SPGS FAIR      45  38  76 NW3       30.15S
WALDEN         FAIR      48  39  71 E5        30.23S
$$

COZ006>008-011-191500-
...WEST CENTRAL VALLEYS...

CITY           SKY/WX    TMP DP  RH WIND       PRES   REMARKS
GRAND JUNCTION FAIR      64  30  27 CALM      30.03R
MONTROSE       FAIR      64  36  35 SE7       30.11R
EAGLE          FAIR      53  36  52 NW3       30.17S
RIFLE          FAIR      55  34  45 CALM      30.09R
DELTA          FAIR      64  32  30 E9        30.08R
NUCLA          FAIR      64  28  25 CALM      30.15S
$$

COZ017>023-064>068-191500-
...SOUTHWEST COLORADO...

CITY           SKY/WX    TMP DP  RH WIND       PRES   REMARKS
DURANGO        FAIR      54  42  64 CALM      30.19R
CORTEZ         FAIR      60  41  49 E6        30.14R
PAGOSA SPRINGS FAIR      58  37  47 CALM      30.26R
TELLURIDE      FAIR      57  26  30 CALM      30.33R
WOLF CREEK PAS FAIR      41  28  60 SW14G21   30.52S
$$

COZ009-010-012-014-032>034-037-058>063-191500-
...CENTRAL COLORADO...

CITY           SKY/WX    TMP DP  RH WIND       PRES   REMARKS
ASPEN          FAIR      57  37  47 N6        30.18S
BUENA VISTA    PTSUNNY   55  33  44 CALM      30.24S
COPPER MTN     FAIR      54  27  35 SE15G21   30.46F
BERTHOUD PASS  FAIR      37  25  60 S16G22    30.49S
COTTONWOOD PAS FAIR      61  32  33 E5        30.35S
GUNNISON       FAIR      49  37  63 CALM      30.26R
GRANBY         PTSUNNY   46  39  75 CALM      30.24S
KREMMLING      FAIR      54  37  54 CALM      30.21S
LEADVILLE      FAIR      49  31  49 S5        30.33S
MONARCH PASS   CLOUDY    46  28  49 MISG      30.59R
SALIDA         CLOUDY    55  35  47 CALM      30.29S
SUNLIGHT       FAIR      46  27  46 SW8       30.40R
WILKERSON PASS FAIR      50  30  46 SW3       30.47S
$$

COZ069>075-191500-
...SAN LUIS VALLEY/SANGRE DE CRISTO MOUNTAINS...

CITY           SKY/WX    TMP DP  RH WIND       PRES   REMARKS
ALAMOSA        FAIR      57  37  47 CALM      30.22R
DEL NORTE      FAIR      58  33  39 W6        30.25S
LA VETA PASS   PTSUNNY   46  43  87 NE6       30.51R FOG
SAGUACHE       PTSUNNY   55  32  41 NW9       30.25S
$$

COZ035-036-038>040-191500-
...NORTHERN COLORADO FRONT RANGE...

CITY           SKY/WX    TMP DP  RH WIND       PRES   REMARKS
DENVER INTL AP FAIR      61  53  75 SE12      30.14F
AURORA         PTSUNNY   60  54  79 SE7       30.16S
FRONT RANGE AP PTSUNNY   63  55  77 E17       30.15S
ERIE MUNI ARPT PTSUNNY   61  54  77 S7        30.19S
BOULDER MUN AP CLOUDY    61  59  94 S3        30.14S
CENTENNIAL     CLOUDY    60  54  80 S5        30.16F
BROOMFIELD     PTSUNNY   59  55  88 S7        30.16F
FORT COLLINS   PTSUNNY   61  57  87 S13       30.12F
LONGMONT       CLOUDY    63  58  83 S3        30.15S
$$

COZ041-046-047-076>085-087-088-191500-
...PIKES PEAK/PALMER DIVIDE AND SOUTHERN FOOTHILLS...

CITY           SKY/WX    TMP DP  RH WIND       PRES   REMARKS
COLO. SPRINGS  PTSUNNY   61  54  77 NE8       30.20R
A. F. ACADEMY  CLOUDY    59  54  82 NE8       30.21R
SCHRIEVER AFB  NOT AVBL
CHEYENNE MTN   CLOUDY    55  53  91 N3        30.19R
ELLICOTT         N/A    N/A N/A N/A E20G28    30.15R
FALCON         CLOUDY    57  53  85 NE8       30.23R
FORT CARSON    CLOUDY    60  54  80 NE10      30.17R
LIMON          FAIR      64  52  64 E21G32    30.12S
MONUMENT HILL  CLOUDY    54  52  94 E9        30.24S
CANON CITY     CLOUDY    66  57  72 E15G21    30.15R
WALSENBURG     CLOUDY    64  55  72 N8        30.18S
TRINIDAD       FAIR      66  54  65 NW20      30.14R
$$

COZ042>045-048>051-090-091-191500-
...NORTHEAST COLORADO...

CITY           SKY/WX    TMP DP  RH WIND       PRES   REMARKS
GREELEY ARPT   CLOUDY    61  57  87 S6        30.13S
AKRON          FAIR      62  57  83 E6        30.11S
BURLINGTON     PTSUNNY   67  56  67 E17G25    30.08S
WRAY           CLOUDY    66  55  68 MISG      30.06S
YUMA           CLOUDY    61  48  63 CALM      30.08S
STERLING       CLOUDY    61  59  94 CALM      30.08S
HOLYOKE        FAIR      64  59  82 W5        30.06R
FORT MORGAN    CLOUDY    60  56  87 CALM      30.12S
$$

COZ086-089-092>099-191500-
...SOUTHEAST COLORADO...

CITY           SKY/WX    TMP DP  RH WIND       PRES   REMARKS
PUEBLO         CLOUDY    69  57  65 NE13      30.10R
LA JUNTA       CLOUDY    71  61  70 NE22G29   30.02R
LAMAR          FAIR      73  63  70 NE17      29.96S
SPRINGFIELD    NOT AVBL
$$




USA.gov is the U.S. government's official web portal to all federal, state and local government web resources and services.